When you browse on this site, cookies collect data to enhance your experience and personalize the content and advertising you see.
Visit our Privacy Policy to learn more. By continuing to use the site, you agree to this use of cookies and data.
  • în România
  • Lista ţărilor
  • Pe 7 zile
  • Temperatura apei
  • Meteo pe hartă
  • Widget-uri
  • user-avatar
    Intrare

    Meteo pe oră la Mochudi

    Astăzi, 23 Februarie, Duminică

    Timp Temperatura Precipitaţii Vânt Presiune Umiditate
    00:00 +24°C° 0.1 mm 3 m/s 679 mmHg 80%
    01:00 +24°C° 0.1 mm 2 m/s 678 mmHg 79%
    02:00 +24°C° 0.1 mm 2 m/s 678 mmHg 77%
    03:00 +24°C° 0 mm 2 m/s 678 mmHg 79%
    04:00 +24°C° 0 mm 2 m/s 678 mmHg 81%
    05:00 +23°C° 0 mm 1 m/s 677 mmHg 82%
    06:00 +24°C° 0 mm 2 m/s 678 mmHg 78%
    07:00 +25°C° 0 mm 2 m/s 679 mmHg 74%
    08:00 +25°C° 0 mm 2 m/s 679 mmHg 70%
    09:00 +27°C° 0.1 mm 2 m/s 679 mmHg 62%
    10:00 +29°C° 0.1 mm 2 m/s 680 mmHg 55%
    11:00 +31°C° 0.1 mm 3 m/s 680 mmHg 47%
    12:00 +33°C° 0 mm 3 m/s 680 mmHg 43%
    13:00 +35°C° 0 mm 2 m/s 679 mmHg 39%
    14:00 +36°C° 0 mm 2 m/s 679 mmHg 34%
    15:00 +35°C° 0 mm 3 m/s 679 mmHg 36%
    16:00 +34°C° 0 mm 4 m/s 678 mmHg 38%
    17:00 +34°C° 0 mm 5 m/s 678 mmHg 40%
    18:00 +29°C° 0.6 mm 6 m/s 678 mmHg 54%
    19:00 +26°C° 0.6 mm 6 m/s 678 mmHg 68%
    20:00 +22°C° 0.6 mm 7 m/s 679 mmHg 81%
    21:00 +21°C° 2.7 mm 7 m/s 679 mmHg 84%
    22:00 +21°C° 2.7 mm 7 m/s 680 mmHg 87%
    23:00 +20°C° 2.7 mm 7 m/s 681 mmHg 89%

    Mâine, 24 Februarie, Luni

    Timp Temperatura Precipitaţii Vânt Presiune Umiditate
    00:00 +20°C° 0.2 mm 6 m/s 681 mmHg 89%
    01:00 +20°C° 0.2 mm 6 m/s 680 mmHg 88%
    02:00 +20°C° 0.2 mm 6 m/s 680 mmHg 87%
    03:00 +20°C° 0.1 mm 5 m/s 680 mmHg 86%
    04:00 +19°C° 0.1 mm 5 m/s 680 mmHg 86%
    05:00 +19°C° 0.1 mm 5 m/s 680 mmHg 86%
    06:00 +19°C° 0.1 mm 5 m/s 680 mmHg 84%
    07:00 +19°C° 0.1 mm 5 m/s 681 mmHg 83%
    08:00 +19°C° 0.1 mm 5 m/s 681 mmHg 82%
    09:00 +20°C° 0 mm 5 m/s 682 mmHg 77%
    10:00 +20°C° 0 mm 5 m/s 682 mmHg 72%
    11:00 +21°C° 0 mm 5 m/s 683 mmHg 67%
    12:00 +22°C° 0 mm 5 m/s 682 mmHg 62%
    13:00 +23°C° 0 mm 5 m/s 682 mmHg 57%
    14:00 +25°C° 0 mm 5 m/s 682 mmHg 53%
    15:00 +25°C° 0 mm 5 m/s 682 mmHg 52%
    16:00 +25°C° 0 mm 4 m/s 681 mmHg 52%
    17:00 +25°C° 0 mm 4 m/s 681 mmHg 52%
    18:00 +22°C° 0 mm 3 m/s 681 mmHg 58%
    19:00 +21°C° 0 mm 3 m/s 681 mmHg 64%
    20:00 +19°C° 0 mm 2 m/s 681 mmHg 69%
    21:00 +19°C° 0 mm 2 m/s 681 mmHg 72%
    22:00 +18°C° 0 mm 2 m/s 681 mmHg 74%
    23:00 +18°C° 0 mm 2 m/s 681 mmHg 76%

    Poimâine, 25 Februarie, Marţi

    Timp Temperatura Precipitaţii Vânt Presiune Umiditate
    00:00 +17°C° 0 mm 2 m/s 681 mmHg 78%
    01:00 +17°C° 0 mm 2 m/s 681 mmHg 80%
    02:00 +17°C° 0 mm 2 m/s 681 mmHg 82%
    03:00 +16°C° 0 mm 2 m/s 681 mmHg 83%
    04:00 +16°C° 0 mm 2 m/s 681 mmHg 85%
    05:00 +16°C° 0 mm 2 m/s 681 mmHg 86%
    06:00 +17°C° 0 mm 2 m/s 681 mmHg 82%
    07:00 +18°C° 0 mm 3 m/s 682 mmHg 77%
    08:00 +19°C° 0 mm 4 m/s 682 mmHg 73%
    09:00 +21°C° 0 mm 4 m/s 682 mmHg 65%
    10:00 +23°C° 0 mm 4 m/s 682 mmHg 57%
    11:00 +26°C° 0 mm 4 m/s 683 mmHg 49%
    12:00 +27°C° 0 mm 4 m/s 682 mmHg 45%
    13:00 +28°C° 0 mm 4 m/s 682 mmHg 40%
    14:00 +30°C° 0 mm 4 m/s 681 mmHg 36%
    15:00 +29°C° 0 mm 4 m/s 681 mmHg 36%
    16:00 +29°C° 0 mm 4 m/s 680 mmHg 36%
    17:00 +29°C° 0 mm 4 m/s 680 mmHg 36%
    18:00 +27°C° 0 mm 3 m/s 680 mmHg 41%
    19:00 +25°C° 0 mm 3 m/s 680 mmHg 46%
    20:00 +23°C° 0 mm 2 m/s 680 mmHg 51%
    21:00 +23°C° 0 mm 2 m/s 680 mmHg 55%
    22:00 +21°C° 0 mm 2 m/s 680 mmHg 60%
    23:00 +20°C° 0 mm 2 m/s 680 mmHg 65%

    26 Februarie, Miercuri

    Timp Temperatura Precipitaţii Vânt Presiune Umiditate
    00:00 +20°C° 0 mm 2 m/s 680 mmHg 67%
    01:00 +19°C° 0 mm 2 m/s 680 mmHg 70%
    02:00 +19°C° 0 mm 2 m/s 679 mmHg 73%
    03:00 +18°C° 0 mm 2 m/s 679 mmHg 74%
    04:00 +18°C° 0 mm 2 m/s 679 mmHg 76%
    05:00 +18°C° 0 mm 2 m/s 679 mmHg 77%
    06:00 +19°C° 0 mm 2 m/s 680 mmHg 72%
    07:00 +19°C° 0 mm 3 m/s 680 mmHg 67%
    08:00 +20°C° 0 mm 3 m/s 681 mmHg 62%
    09:00 +22°C° 0 mm 3 m/s 681 mmHg 54%
    10:00 +25°C° 0 mm 3 m/s 682 mmHg 46%
    11:00 +28°C° 0 mm 3 m/s 682 mmHg 39%
    12:00 +29°C° 0 mm 3 m/s 681 mmHg 36%
    13:00 +30°C° 0 mm 4 m/s 681 mmHg 32%
    14:00 +32°C° 0 mm 4 m/s 681 mmHg 29%
    15:00 +32°C° 0 mm 4 m/s 680 mmHg 30%
    16:00 +32°C° 0 mm 4 m/s 680 mmHg 30%
    17:00 +30°C° 0 mm 3 m/s 679 mmHg 31%
    18:00 +29°C° 0 mm 3 m/s 679 mmHg 35%
    19:00 +27°C° 0 mm 2 m/s 679 mmHg 39%
    20:00 +25°C° 0 mm 2 m/s 679 mmHg 42%
    21:00 +25°C° 0 mm 2 m/s 679 mmHg 44%
    22:00 +24°C° 0 mm 2 m/s 679 mmHg 45%
    23:00 +24°C° 0 mm 2 m/s 679 mmHg 46%

    27 Februarie, Joi

    Timp Temperatura Precipitaţii Vânt Presiune Umiditate
    00:00 +24°C° 0 mm 2 m/s 679 mmHg 46%
    01:00 +24°C° 0 mm 2 m/s 679 mmHg 46%
    02:00 +24°C° 0 mm 1 m/s 679 mmHg 46%
    03:00 +24°C° 0 mm 1 m/s 679 mmHg 46%
    04:00 +24°C° 0 mm 1 m/s 679 mmHg 47%
    05:00 +24°C° 0 mm 1 m/s 679 mmHg 47%
    06:00 +24°C° 0 mm 1 m/s 679 mmHg 47%
    07:00 +24°C° 0 mm 1 m/s 679 mmHg 48%
    08:00 +24°C° 0 mm 1 m/s 680 mmHg 48%
    09:00 +27°C° 0 mm 1 m/s 680 mmHg 43%
    10:00 +29°C° 0 mm 1 m/s 680 mmHg 38%
    11:00 +31°C° 0 mm 1 m/s 681 mmHg 33%
    12:00 +32°C° 0 mm 2 m/s 680 mmHg 30%
    13:00 +34°C° 0 mm 2 m/s 680 mmHg 27%
    14:00 +35°C° 0 mm 3 m/s 680 mmHg 24%
    15:00 +35°C° 0 mm 3 m/s 679 mmHg 23%
    16:00 +35°C° 0 mm 3 m/s 679 mmHg 23%
    17:00 +35°C° 0 mm 3 m/s 678 mmHg 22%
    18:00 +32°C° 0 mm 2 m/s 678 mmHg 26%
    19:00 +30°C° 0 mm 2 m/s 678 mmHg 30%
    20:00 +28°C° 0 mm 1 m/s 678 mmHg 34%
    21:00 +27°C° 0 mm 2 m/s 678 mmHg 37%
    22:00 +26°C° 0 mm 2 m/s 678 mmHg 40%
    23:00 +26°C° 0 mm 2 m/s 679 mmHg 42%

    28 Februarie, Vineri

    Timp Temperatura Precipitaţii Vânt Presiune Umiditate
    00:00 +25°C° 0 mm 2 m/s 678 mmHg 46%
    01:00 +25°C° 0 mm 2 m/s 678 mmHg 50%
    02:00 +24°C° 0 mm 2 m/s 678 mmHg 54%
    03:00 +24°C° 0 mm 2 m/s 678 mmHg 57%
    04:00 +24°C° 0 mm 1 m/s 678 mmHg 60%
    05:00 +24°C° 0 mm 1 m/s 678 mmHg 63%
    06:00 +25°C° 0 mm 1 m/s 679 mmHg 60%
    07:00 +26°C° 0 mm 2 m/s 679 mmHg 56%
    08:00 +27°C° 0 mm 2 m/s 680 mmHg 52%
    09:00 +29°C° 0 mm 3 m/s 680 mmHg 44%
    10:00 +33°C° 0 mm 3 m/s 681 mmHg 36%
    11:00 +35°C° 0 mm 4 m/s 681 mmHg 28%
    12:00 +36°C° 0 mm 4 m/s 681 mmHg 26%
    13:00 +37°C° 0 mm 4 m/s 680 mmHg 25%
    14:00 +38°C° 0 mm 4 m/s 680 mmHg 23%
    15:00 +37°C° 0 mm 4 m/s 680 mmHg 24%
    16:00 +36°C° 0 mm 4 m/s 679 mmHg 25%
    17:00 +36°C° 0 mm 4 m/s 679 mmHg 27%
    18:00 +33°C° 0 mm 4 m/s 679 mmHg 34%
    19:00 +30°C° 0 mm 5 m/s 680 mmHg 42%
    20:00 +28°C° 0 mm 6 m/s 680 mmHg 50%
    21:00 +26°C° 0.2 mm 6 m/s 681 mmHg 56%
    22:00 +24°C° 0.2 mm 6 m/s 681 mmHg 62%
    23:00 +23°C° 0.2 mm 6 m/s 682 mmHg 69%
    Arată mai mult